Featured Flight

MET3002 - Chicago to Detroit

Boeing 737-200
711MT
0 hrs 45 mins
199 nm
Scheduled - Daily

Bid/PiRep Status

Bid was submitted on December 28th, 2016 13:11 UTC.
PiRep # 74494: Approved by Dave Nichols on December 30th, 2016 7:54 UTC

Departure

Departing from
Chicago (MDW)
Departure gate
Scheduled Departure
GMT 1330
Local 0830
METAR KMDW 191753Z 28014KT 10SM FEW029 FEW250 01/M07 A3005 RMK AO2 SLP185 T00061067 10011 21011 50008
TAF KMDW 191720Z 1918/2018 28012G18KT P6SM FEW030 FM192300 25008KT P6SM FEW120 SCT200 FM200700 22010KT P6SM SCT200 FM201500 21014G21KT P6SM FEW200

Route Map

Planning Resources

KMDW-GIJ-LFD-DXQ-MDTW
CISRO2.GIJ LFD.MIZAR3
KMDW MDW4 LEWKE GIJ LFD MIZAR3 KDTW
KMDW GIJ J554 CRL KDTW
KMDW-GIJ-BENJO-CRL-KDTW
Route:
OFP Layout:
Units:
Detailed Navlog:
ETOPS Planning:
Plan Stepclimbs:
Runway Analysis:
Include NOTAMS:
FIR NOTAMS:
Flight Maps:

Popularity

Hub Current Bids PiReps this month Total PiReps
KLAX 0 0 0
KBOS 0 0 0
KDFW 0 0 0